Vertical_Velocity
2 -0 -1 -1 3 1 -2 7 -8 8 -2 -5 0 -3 2 1 3 3 2 -0 -1 1 1 1 -2 -1 -0 -2 -4 -5 -2 -2 -3 -4 -3 -1 0 -3 -3 -4 -5 -5 -2 -1
3 3 1 -2 -2 -0 -1 0 -0 4 3 -2 -4 2 3 3 3 0 0 -0 -0 -1 -2 -1 -2 -2 -3 -3 -1 -2 -3 -4 -2 2 -1 -3 -4 -2 -3 -3 -3 -4 -5 -7
-1 -0 -1 -5 4 -0 -0 -1 0 -5 4 1 -1 -3 -1 0 -1 -4 -2 -1 -1 -2 -1 -2 -3 -2 0 -1 -1 -3 -3 -3 -1 -3 -2 -2 -2 -4 -6 -3 -2 -5 -5 -3
0 -1 -5 3 -2 -1 -2 -0 -1 0 3 3 1 1 3 0 -0 -1 1 0 -1 -0 -1 -1 0 1 -1 -1 -1 -0 1 -3 -4 -1 -3 -3 -4 -4 -3 -5 -6 -5 0 -2
-2 2 2 -2 4 4 -1 3 1 1 -3 -3 3 -0 1 -1 1 2 -2 -2 -1 1 1 -0 -2 -2 -1 1 3 -1 -5 -4 -3 -2 -1 -6 -4 -3 -5 -7 -4 -1 -2 -2
-2 -2 -4 5 3 3 2 -2 1 -2 -3 -3 -0 0 0 1 1 -0 -1 -1 -1 -1 0 1 -0 2 0 0 0 -0 -2 -3 -3 -3 -6 -1 -4 -8 -4 -6 -2 -3 1 -3
-2 -3 -7 3 4 -0 -4 5 -1 -3 1 2 1 -1 0 1 1 1 -1 1 2 1 -0 -1 -1 0 1 0 -1 -2 -3 -2 -2 -4 -0 -9 -4 -4 -3 0 1 -3 -6 -5
2 2 -0 3 -0 4 2 1 3 2 1 0 -0 0 -0 -2 -1 -1 -1 -0 -0 1 1 1 1 -1 -3 -1 -3 -2 -2 -3 -3 -3 -6 -3 -4 -3 0 -4 -4 -2 -4 1
0 4 3 3 2 2 1 1 0 -0 -1 -1 1 -0 1 -0 -0 2 2 2 1 2 0 -2 -2 -1 -2 -1 -1 -2 -2 -1 -4 -1 -2 -4 -5 -2 1 -1 -3 0 -6 -4
-4 2 0 0 3 1 0 -1 1 -0 -0 1 0 0 -0 1 4 2 -1 -1 -0 -2 -4 -2 -0 -1 0 -0 0 -0 2 -1 -1 -3 -2 -1 0 -1 -1 -3 -3 -5 -10 -3
2 -0 -1 -1 -3 -1 1 2 1 2 0 -0 2 4 4 1 -0 -1 -1 -1 -2 -2 -1 -1 -4 -5 -1 0 1 1 -0 -3 -5 -4 -3 1 2 -2 1 1 -10 -15 -12 -7
-2 1 1 3 3 -0 1 0 -0 1 3 2 2 0 -1 -2 -2 -4 -2 -1 -0 -1 -3 -2 -1 -3 1 -1 -2 -4 -2 -4 -3 -0 1 -0 -2 4 5 -1 -1 -0 -7 -9
-3 -1 2 -1 2 3 2 2 2 2 1 -1 -3 -3 -4 -5 -2 0 -0 0 -1 -1 -1 1 2 -3 -2 -4 -4 -4 -6 -4 -2 -1 -0 -2 -1 -6 -8 18 -0 2 -2 -4
-1 0 2 1 2 1 1 2 1 -1 -4 -4 -3 -4 -2 0 1 1 1 0 -1 -1 1 2 1 -5 -2 -4 -3 -1 -1 -3 -5 -3 -4 -4 -1 -0 -4 -8 -6 9 10 -4
1 3 2 1 2 1 0 -1 -3 -0 -3 -5 -2 -0 0 -0 1 0 -0 0 -0 -1 -0 1 -2 -5 -4 -3 -2 -2 -4 -2 -2 -1 -3 -2 -2 -3 -4 -3 -4 -4 1 8
3 3 2 1 -1 -2 -1 1 -1 -1 0 1 3 3 2 1 0 0 0 0 -2 -3 -3 -0 -4 -2 -1 -2 -1 -1 -1 -3 -3 -1 -0 0 -1 -2 -1 -2 -3 -3 -3 -2
-0 -1 -2 -5 -2 -0 -2 -1 -1 -1 -2 -2 -2 -2 -1 -1 -1 -1 -1 0 -1 -1 -2 -0 1 -0 -2 -1 -1 -1 -2 -1 -2 -0 -2 -1 -2 -1 -2 -6 -2 -0 -1 1
1 -3 -3 1 1 -1 -2 0 2 1 0 0 0 0 -0 -1 -2 -1 -1 -3 -3 1 -7 -3 -5 -4 -1 -1 -2 -1 -2 -2 -1 -1 -1 -1 -2 -2 -4 -4 -4 -2 2 3
-0 0 0 -1 -1 -0 0 -0 -0 -1 -1 0 -1 -1 -1 -1 -1 -2 -0 -2 -9 0 1 -2 -2 -2 -1 -2 -3 -1 -2 -1 0 -0 -2 -2 1 0 -2 -2 -2 -1 -1 1
-1 -1 -2 -1 -2 -1 -1 -0 -2 -2 2 -0 -1 -2 -2 -2 -3 -3 -3 2 -8 2 1 1 -1 0 -0 0 -0 -1 -1 -1 -1 -1 -1 -2 -3 -1 -2 -3 -3 -3 -1 -1
0 0 0 -0 -2 -2 -1 -1 -1 -2 -3 -5 -3 -3 -4 -6 -2 1 -1 2 -4 -4 -1 -3 -5 -3 -2 -1 1 -0 0 -1 -2 -3 1 1 2 0 -0 -1 -1 -3 -2 -2
-1 -1 -1 0 2 -2 -0 -2 -2 -5 -5 -4 -3 -3 -2 -3 -1 -3 -4 -3 3 0 3 -1 -2 -2 -1 1 -0 -1 -3 -3 -3 -2 -3 -2 -2 -2 -1 -2 -1 -2 -2 -2
1 1 -0 1 -0 -4 -8 -4 -3 -3 -3 -2 -3 -1 -1 -1 -1 -3 5 -2 -1 -3 -2 -3 -1 -2 -1 1 0 -0 -3 -2 -1 -1 -1 0 -1 -1 -0 -1 -2 -2 -2 -1
-5 -5 -5 -4 -4 -2 -0 -2 -1 -0 -1 -2 -1 -2 -2 -1 -1 -3 0 0 -1 -2 -1 -3 -1 -2 -3 -4 -3 -4 -2 -0 -3 -1 1 -0 -3 -2 -2 -2 -2 -3 -3 -1
-2 -1 -0 -1 -3 -2 -2 -3 -2 -2 -2 -2 -1 -2 -4 -2 -0 3 0 -2 -1 -2 2 1 -1 -2 0 0 -2 -3 -1 -2 -1 1 1 0 1 0 -2 -2 -3 -2 -2 -1
-0 -0 -1 -1 -2 -2 -2 -2 -1 -2 -3 -3 -2 -1 -2 -0 -1 -2 -3 -3 -0 0 -2 -3 -2 -1 -0 -1 -0 -0 -2 1 1 2 -1 0 2 -1 -2 -2 -2 -2 -1 -0
-1 -2 -2 -2 -1 -2 -3 -2 -2 -3 -2 -2 -4 -2 -1 -1 -3 -2 -2 -2 -2 -2 -3 -1 -0 -1 -2 -0 -1 -3 1 1 -1 -1 1 2 0 -0 -1 -1 -1 -1 -1 0
Height
5684 5690 5695 5701 5705 5707 5709 5714 5714 5719 5718 5718 5723 5725 5725 5725 5725 5724 5722 5720 5717 5716 5714 5711 5707 5702 5697 5692 5686 5679 5673 5665 5656 5648 5640 5632 5622 5612 5601 5589 5576 5562 5547 5532
5683 5688 5692 5696 5699 5701 5704 5707 5710 5713 5714 5715 5718 5718 5719 5719 5718 5716 5715 5713 5712 5709 5705 5701 5697 5692 5686 5680 5673 5665 5658 5650 5643 5634 5625 5615 5605 5593 5581 5567 5553 5536 5521 5506
5681 5684 5687 5690 5696 5698 5701 5703 5705 5708 5711 5711 5711 5711 5711 5710 5710 5709 5708 5707 5703 5700 5696 5691 5686 5680 5674 5667 5659 5651 5644 5636 5627 5618 5607 5595 5584 5572 5559 5544 5529 5514 5497 5482
5677 5679 5682 5689 5691 5694 5697 5699 5702 5704 5705 5705 5704 5704 5704 5704 5703 5702 5700 5697 5694 5689 5685 5680 5674 5668 5660 5653 5645 5637 5628 5619 5610 5599 5588 5576 5564 5549 5534 5521 5506 5492 5479 5465
5675 5678 5683 5686 5689 5692 5693 5696 5696 5698 5698 5698 5698 5698 5698 5697 5696 5693 5691 5688 5683 5679 5674 5668 5661 5654 5647 5639 5630 5621 5612 5602 5592 5582 5570 5557 5542 5527 5513 5500 5487 5475 5461 5447
5673 5674 5678 5682 5685 5687 5688 5688 5689 5690 5691 5692 5692 5691 5690 5689 5687 5685 5681 5677 5672 5667 5661 5654 5648 5641 5633 5624 5616 5607 5597 5587 5576 5565 5550 5534 5521 5506 5492 5480 5469 5457 5446 5428
5669 5670 5672 5677 5678 5678 5680 5687 5684 5685 5686 5686 5685 5685 5683 5681 5679 5675 5671 5666 5661 5655 5649 5642 5635 5627 5619 5611 5603 5593 5582 5570 5557 5542 5529 5514 5500 5486 5476 5465 5453 5440 5429 5414
5664 5665 5668 5671 5673 5674 5676 5676 5677 5677 5678 5678 5677 5677 5675 5673 5669 5665 5659 5654 5649 5643 5636 5628 5621 5614 5606 5598 5587 5576 5564 5551 5538 5524 5508 5495 5483 5471 5460 5448 5436 5422 5410 5399
5661 5663 5663 5665 5667 5667 5668 5670 5671 5672 5671 5671 5670 5668 5665 5661 5657 5652 5647 5641 5635 5628 5620 5613 5606 5598 5589 5580 5570 5558 5545 5533 5520 5507 5492 5478 5466 5456 5445 5432 5418 5406 5393 5381
5656 5657 5658 5659 5661 5662 5663 5663 5664 5664 5663 5662 5660 5657 5653 5649 5644 5639 5633 5626 5619 5612 5605 5597 5590 5583 5575 5565 5553 5541 5529 5516 5503 5491 5478 5465 5452 5438 5428 5417 5405 5390 5376 5363
5650 5651 5653 5654 5654 5655 5656 5656 5656 5654 5653 5651 5648 5644 5640 5635 5630 5624 5617 5610 5603 5596 5589 5583 5575 5566 5557 5546 5535 5524 5513 5500 5487 5474 5463 5452 5441 5427 5416 5404 5388 5372 5357 5343
5643 5645 5646 5647 5647 5647 5647 5646 5645 5643 5641 5638 5634 5630 5626 5622 5616 5609 5602 5595 5589 5582 5576 5567 5558 5549 5539 5529 5519 5508 5496 5484 5471 5459 5448 5437 5428 5421 5406 5392 5379 5361 5345 5332
5634 5635 5636 5637 5638 5638 5637 5635 5634 5631 5628 5625 5622 5618 5613 5607 5601 5594 5587 5581 5574 5567 5560 5551 5541 5532 5523 5513 5502 5490 5478 5466 5454 5443 5433 5423 5413 5403 5397 5388 5369 5352 5335 5322
5625 5626 5627 5627 5627 5627 5626 5624 5621 5619 5616 5613 5609 5604 5597 5591 5585 5579 5573 5566 5559 5551 5543 5535 5525 5515 5506 5496 5484 5471 5459 5446 5436 5428 5419 5409 5399 5390 5379 5368 5358 5345 5327 5312
5616 5616 5617 5617 5616 5615 5613 5611 5609 5606 5602 5598 5592 5587 5582 5576 5570 5564 5558 5551 5543 5536 5528 5519 5510 5500 5489 5478 5465 5453 5442 5433 5424 5415 5406 5396 5385 5375 5363 5352 5340 5327 5315 5304
5607 5606 5606 5607 5606 5604 5602 5599 5596 5592 5588 5583 5577 5572 5567 5561 5556 5550 5543 5536 5529 5520 5512 5503 5492 5481 5470 5458 5448 5438 5428 5418 5409 5401 5391 5381 5370 5360 5349 5338 5325 5312 5302 5293
5596 5597 5596 5595 5594 5591 5588 5585 5581 5577 5571 5567 5562 5558 5553 5548 5542 5535 5528 5521 5513 5504 5495 5486 5476 5465 5453 5442 5433 5423 5413 5404 5395 5386 5377 5367 5357 5346 5334 5323 5312 5302 5292 5283
5587 5586 5586 5584 5581 5578 5574 5570 5566 5562 5558 5554 5550 5545 5540 5534 5527 5520 5512 5504 5496 5487 5477 5468 5457 5446 5435 5425 5416 5407 5398 5390 5382 5373 5364 5354 5342 5331 5321 5309 5299 5290 5282 5274
5576 5574 5572 5570 5566 5563 5561 5558 5554 5550 5546 5542 5537 5531 5526 5520 5513 5505 5497 5488 5480 5474 5461 5448 5437 5427 5418 5408 5400 5393 5384 5377 5368 5359 5349 5339 5329 5318 5307 5296 5286 5278 5271 5264
5561 5560 5558 5556 5554 5552 5549 5545 5541 5537 5533 5528 5523 5517 5511 5505 5498 5491 5482 5472 5462 5455 5443 5431 5421 5411 5403 5395 5387 5379 5370 5362 5353 5345 5335 5324 5314 5303 5292 5282 5274 5267 5261 5255
5550 5548 5546 5544 5542 5539 5536 5532 5529 5525 5520 5515 5509 5503 5497 5490 5482 5473 5465 5456 5442 5432 5422 5412 5403 5396 5388 5381 5373 5364 5356 5347 5339 5329 5320 5309 5299 5287 5278 5270 5264 5258 5251 5246
5540 5538 5536 5534 5531 5527 5523 5519 5515 5510 5505 5500 5494 5487 5479 5472 5464 5455 5445 5436 5425 5414 5406 5397 5389 5381 5374 5366 5358 5350 5341 5332 5323 5313 5303 5292 5280 5272 5265 5259 5254 5248 5243 5238
5527 5526 5523 5521 5517 5513 5509 5505 5500 5495 5490 5484 5478 5471 5464 5455 5445 5436 5427 5413 5404 5397 5390 5382 5375 5367 5359 5351 5343 5335 5326 5316 5306 5295 5284 5274 5265 5259 5254 5249 5244 5240 5235 5233
5514 5511 5508 5506 5502 5499 5494 5490 5485 5479 5473 5466 5459 5452 5444 5435 5425 5415 5407 5399 5390 5383 5376 5368 5361 5353 5345 5337 5328 5319 5309 5299 5289 5278 5269 5261 5254 5249 5244 5240 5236 5232 5229 5228
5500 5497 5494 5491 5487 5483 5479 5473 5468 5462 5455 5449 5441 5433 5425 5417 5408 5398 5389 5382 5376 5369 5363 5354 5346 5338 5329 5320 5311 5301 5291 5281 5271 5263 5257 5251 5245 5240 5235 5231 5227 5225 5223 5224
5486 5483 5480 5476 5472 5468 5463 5457 5452 5446 5439 5432 5424 5415 5406 5397 5389 5383 5377 5369 5363 5356 5348 5340 5331 5322 5313 5304 5293 5283 5273 5264 5257 5251 5245 5240 5235 5231 5226 5222 5220 5218 5219 5221
5470 5467 5464 5461 5457 5453 5447 5442 5435 5429 5421 5412 5404 5395 5388 5381 5375 5370 5363 5356 5349 5341 5333 5324 5315 5305 5295 5285 5275 5266 5258 5252 5245 5239 5235 5231 5227 5223 5219 5216 5214 5215 5217 5220